This demonstration page uses our WeatherBlox Daily Observations layout. Learn more.

Left ArrowRight Arrow

Hourly Observations for May 12, 2015

Temp ( °F °C ) Dew Point ( °F °C ) Humidity (%) Winds ( mph kmh ) Pressure ( in mb ) Visibility ( mi km ) Precip ( " mm )
12:52 am 00:52 Clear 47 8.3 37 2.8 69 69 NW 10 17 30.13 1020 10 16 0.00 0.00
1:52 am 01:52 Clear 44 6.7 36 2.2 73 73 W 5 7 30.15 1021 10 16 0.00 0.00
2:52 am 02:52 Clear 43 6.1 36 2.2 76 76 WNW 5 7 30.16 1022 10 16 0.00 0.00
3:52 am 03:52 Clear 43 6.1 36 2.2 76 76 W 3 6 30.18 1022 10 16 0.00 0.00
4:52 am 04:52 Clear 43 6.1 36 2.2 76 76 WSW 5 7 30.20 1023 10 16 0.00 0.00
5:52 am 05:52 Clear 40 4.4 34 1.1 79 79 NW 3 6 30.22 1023 10 16 0.00 0.00
6:52 am 06:52 Sunny 42 5.6 35 1.7 76 76 Calm 30.24 1024 10 16 0.00 0.00
7:52 am 07:52 Sunny 46 7.8 37 2.8 71 71 VRB 3 6 30.26 1025 10 16 0.00 0.00
8:52 am 08:52 Sunny 50 10 38 3.3 63 63 W 3 6 30.29 1026 10 16 0.00 0.00
9:52 am 09:52 Sunny 54 12.2 38 3.3 55 55 Calm 30.30 1026 10 16 0.00 0.00
10:52 am 10:52 Partly Cloudy 57 13.9 40 4.4 53 53 VRB 6 9 30.30 1026 10 16 0.00 0.00
11:52 am 11:52 Partly Cloudy 61 16.1 41 5 48 48 VRB 3 6 30.31 1027 10 16 0.00 0.00
12:52 pm 12:52 Partly Cloudy 61 16.1 40 4.4 46 46 SE 6 9 30.31 1026 10 16 0.00 0.00
1:52 pm 13:52 Partly Cloudy 66 18.9 38 3.3 36 36 Calm 30.30 1026 10 16 0.00 0.00
2:52 pm 14:52 Partly Cloudy 69 20.6 39 3.9 33 33 Calm 30.27 1025 10 16 0.00 0.00
3:52 pm 15:52 Partly Cloudy 67 19.4 38 3.3 35 35 SSE 6 9 30.25 1025 10 16 0.00 0.00
4:52 pm 16:52 Partly Cloudy 68 20 38 3.3 33 33 SSE 7 11 30.23 1024 10 16 0.00 0.00
5:52 pm 17:52 Mostly Cloudy 68 20 38 3.3 33 33 SSE 10 17 30.21 1023 10 16 0.00 0.00
6:52 pm 18:52 Partly Cloudy 68 20 37 2.8 32 32 SSE 13 20 30.20 1023 10 16 0.00 0.00
7:52 pm 19:52 Partly Cloudy 66 18.9 39 3.9 37 37 SSE 15 24 30.19 1023 10 16 0.00 0.00
8:52 pm 20:52 Mostly Clear 62 16.7 40 4.4 44 44 SE 9 15 30.20 1023 10 16 0.00 0.00
9:52 pm 21:52 Clear 60 15.6 40 4.4 47 47 SE 9 15 30.22 1023 10 16 0.00 0.00
10:52 pm 22:52 Clear 57 13.9 42 5.6 58 58 SE 10 17 30.22 1024 10 16 0.00 0.00
11:52 pm 23:52 Clear 56 13.3 42 5.6 60 60 SSE 8 13 30.24 1024 10 16 0.00 0.00

Powered by AerisWeather